Weather History for KMRH - March, 2014

Change the Weather History Date:

Sunday, March 30, 2014

  Actual Average Record
Temperature  
Mean Temperature 56 °F -  
Max Temperature 63 °F 68 °F 78 °F (1963)
Min Temperature 48 °F 50 °F 35 °F (1955)
Degree Days  
Heating Degree Days 10    
Growing Degree Days 6 (Base 50)    
Moisture  
Dew Point 47 °F    
Average Humidity 76    
Maximum Humidity 97    
Minimum Humidity 55    
Precipitation  
Precipitation 0.00 in - - ()
Sea Level Pressure  
Sea Level Pressure 29.68 in    
Wind  
Wind Speed 17 mph (West)    
Max Wind Speed 25 mph    
Max Gust Speed 32 mph    
Visibility 9 miles    
Events      
Averages and records for this station are not official NWS values.
T = Trace of Precipitation, MM = Missing Value Source: NWS Daily Summary

Daily Weather History Graph

Daily Weather History Graph

Search for Another Location

Airport or City:

Trip Planner

Search our weather history database for the weather conditions in past years. The results will help you decide how hot, cold, wet, or windy it might be!

Date:

Astronomy

Mar. 30, 2014 Rise Set
Actual Time 6:56 AM EDT 7:26 PM EDT
Civil Twilight 6:31 AM EDT 7:51 PM EDT
Nautical Twilight 6:01 AM EDT 8:21 PM EDT
Astronomical Twilight 5:31 AM EDT 8:51 PM EDT
Moon 6:40 AM EDT (3/30) 7:35 PM EDT (3/30)
Length of Visible Light 13h 20m
Length of Day
12h 29m
Waning Crescent, 0% of the Moon is Illuminated
Mar 30
Waning Crescent
Mar 30
New
Apr 7
First Quarter
Apr 15
Full
Apr 22
Last Quarter

Hourly Weather History & Observations

Time (EDT) Temp. Dew Point Humidity Pressure Visibility Wind Dir Wind Speed Gust Speed Precip Events Conditions
12:13 AM 63.0 °F 62.1 °F 97% 29.64 in 6.0 mi SSW 15.0 mph - N/A   Mostly Cloudy
12:58 AM 63.0 °F 61.0 °F 93% 29.62 in 7.0 mi SW 16.1 mph - N/A   Clear
1:19 AM 62.1 °F 60.1 °F 93% 29.62 in 8.0 mi SSW 16.1 mph - N/A   Mostly Cloudy
1:27 AM 62.1 °F 60.1 °F 93% 29.61 in 7.0 mi SW 12.7 mph - N/A   Mostly Cloudy
1:45 AM 61.0 °F 60.1 °F 97% 29.60 in 7.0 mi SW 15.0 mph - N/A   Overcast
1:58 AM 61.0 °F 60.1 °F 97% 29.60 in 7.0 mi SW 15.0 mph - N/A   Overcast
2:40 AM 60.1 °F 57.9 °F 93% 29.59 in 6.0 mi WSW 11.5 mph - N/A   Overcast
2:58 AM 60.1 °F 57.9 °F 93% 29.58 in 7.0 mi SW 18.4 mph 24.2 mph N/A   Mostly Cloudy
3:08 AM 60.1 °F 57.9 °F 93% 29.58 in 7.0 mi SW 17.3 mph - N/A   Mostly Cloudy
3:58 AM 59.0 °F 57.0 °F 93% 29.58 in 8.0 mi SW 16.1 mph - N/A   Clear
4:58 AM 57.9 °F 55.9 °F 93% 29.57 in 8.0 mi SW 12.7 mph - N/A   Partly Cloudy
5:58 AM 57.9 °F 54.0 °F 87% 29.58 in 10.0 mi SW 16.1 mph - N/A   Clear
6:58 AM 57.0 °F 52.0 °F 83% 29.58 in 10.0 mi WSW 15.0 mph - N/A   Clear
7:47 AM 55.9 °F 51.1 °F 84% 29.61 in 10.0 mi West 23.0 mph 28.8 mph N/A   Mostly Cloudy
7:58 AM 55.9 °F 48.9 °F 77% 29.62 in 10.0 mi West 25.3 mph 32.2 mph N/A   Mostly Cloudy
8:06 AM 55.0 °F 48.0 °F 77% 29.62 in 10.0 mi West 24.2 mph 32.2 mph N/A   Scattered Clouds
8:58 AM 55.0 °F 46.0 °F 72% 29.65 in 10.0 mi WNW 25.3 mph - N/A   Scattered Clouds
9:10 AM 53.1 °F 46.0 °F 77% 29.65 in 10.0 mi WNW 21.9 mph 31.1 mph N/A   Mostly Cloudy
9:58 AM 53.1 °F 43.0 °F 69% 29.68 in 10.0 mi WNW 20.7 mph 28.8 mph N/A   Overcast
10:51 AM 55.0 °F 42.1 °F 62% 29.70 in 10.0 mi WNW 18.4 mph - N/A   Scattered Clouds
10:58 AM 55.0 °F 42.1 °F 62% 29.70 in 10.0 mi WNW 19.6 mph - N/A   Scattered Clouds
11:58 AM 53.1 °F 37.9 °F 57% 29.71 in 10.0 mi WNW 25.3 mph 32.2 mph N/A   Mostly Cloudy
12:58 PM 53.1 °F 37.0 °F 55% 29.72 in 10.0 mi WNW 21.9 mph 31.1 mph N/A   Overcast
1:58 PM 50.0 °F 37.0 °F 61% 29.73 in 10.0 mi WNW 21.9 mph 32.2 mph N/A   Overcast
2:58 PM 50.0 °F 37.9 °F 63% 29.73 in 10.0 mi WNW 20.7 mph - N/A   Overcast
3:58 PM 48.9 °F 37.0 °F 64% 29.74 in 10.0 mi WNW 21.9 mph 29.9 mph N/A   Overcast
4:58 PM 48.9 °F 37.0 °F 64% 29.75 in 10.0 mi NW 19.6 mph - N/A   Overcast
5:58 PM 48.9 °F 36.0 °F 61% 29.78 in 10.0 mi NW 15.0 mph - N/A   Overcast
6:58 PM 48.9 °F 36.0 °F 61% 29.80 in 10.0 mi NW 13.8 mph - N/A   Overcast
7:58 PM 48.9 °F 37.0 °F 64% 29.82 in 10.0 mi West 10.4 mph - N/A   Overcast
8:58 PM 50.0 °F 37.9 °F 63% 29.86 in 10.0 mi WNW 12.7 mph - N/A   Overcast
9:58 PM 50.0 °F 37.9 °F 63% 29.87 in 10.0 mi NNW 13.8 mph - 0.00 in   Overcast
10:58 PM 50.0 °F 37.9 °F 63% 29.88 in 10.0 mi West 9.2 mph - N/A   Overcast
11:58 PM 50.0 °F 37.0 °F 61% 29.88 in 10.0 mi West 11.5 mph - N/A   Overcast